GW0552 Weather Reports


time (UTC)temp
C
wind
direction
speed
KPH
gust
KPH
rain 1hr
cm
rain 24hr
cm
rain mn
cm
humidity
%
barometer
mb
20260901021928 25 125 0.0 0.0 0.00 0.00 0.00 99 1015.3
20260901021424 25 124 0.0 0.0 0.00 0.00 0.00 99 1015.2
20260901020919 25 124 0.0 0.0 0.00 0.00 0.00 99 1015.1
20260901020415 25 122 0.0 0.0 0.00 0.00 0.00 99 1015.2
20260901015913 25 122 0.0 0.0 0.00 0.00 0.00 99 1015.0
20260901015410 25 123 0.0 0.0 0.00 0.00 0.00 99 1015.1
20260901014909 25 123 0.0 0.0 0.00 0.00 0.00 99 1015.0
20260901014406 25 124 0.0 0.0 0.00 0.00 0.00 99 1015.2
20260901013901 25 125 0.0 0.0 0.00 0.00 0.00 99 1014.9
20260901013356 25 126 0.0 0.0 0.00 0.00 0.00 99 1014.8
20260901012852 25 124 0.0 0.0 0.00 0.00 0.00 99 1014.9
20260901012347 25 123 0.0 0.0 0.00 0.00 0.00 98 1014.6
20260901011842 25 124 1.6 1.6 0.00 0.00 0.00 98 1014.8
20260901011338 25 126 0.0 0.0 0.00 0.00 0.00 98 1014.7
20260901010831 25 125 0.0 1.6 0.00 0.00 0.00 98 1014.5
20260901010326 25 124 0.0 0.0 0.00 0.00 0.00 97 1014.6
20260901005825 25 123 0.0 0.0 0.00 0.00 0.00 96 1014.4
20260901005320 25 123 0.0 0.0 0.00 0.00 0.00 96 1014.4
20260901004820 26 124 0.0 0.0 0.00 0.00 0.00 96 1014.4
20260901004314 26 124 0.0 0.0 0.00 0.00 0.00 96 1014.5
20260901003814 26 124 0.0 0.0 0.00 0.00 0.00 96 1014.1
20260901003309 26 125 0.0 0.0 0.00 0.00 0.00 96 1014.1
20260901002803 26 126 0.0 0.0 0.00 0.00 0.00 96 1014.1
20260901002258 26 125 0.0 0.0 0.00 0.00 0.00 95 1013.8
20260901001752 26 125 0.0 0.0 0.00 0.00 0.00 95 1013.8
20260901001248 26 126 0.0 0.0 0.00 0.00 0.00 95 1013.6
20260901000743 26 127 0.0 0.0 0.00 0.00 0.00 95 1013.7
20260901000241 26 126 0.0 0.0 0.00 0.00 0.00 94 1013.9
20260831235737 27 127 0.0 0.0 0.00 0.00 0.00 94 1013.8
20260831235233 27 126 0.0 0.0 0.00 0.00 0.00 93 1013.9
20260831234733 27 126 0.0 1.6 0.00 0.00 0.00 93 1014.0
20260831234233 27 126 0.0 1.6 0.00 0.00 0.00 93 1013.8
20260831233728 27 127 0.0 0.0 0.00 0.00 0.00 92 1013.8
20260831233224 27 126 0.0 0.0 0.00 0.00 0.00 91 1013.9
20260831232723 27 127 1.6 1.6 0.00 0.00 0.00 91 1013.9
20260831232220 27 126 0.0 0.0 0.00 0.00 0.00 90 1013.8
20260831231716 28 124 0.0 1.6 0.00 0.00 0.00 90 1014.0
20260831231212 28 127 1.6 1.6 0.00 0.00 0.00 89 1013.9
20260831230712 28 126 1.6 3.2 0.00 0.00 0.00 88 1014.0
20260831230207 28 124 1.6 1.6 0.00 0.00 0.00 87 1013.8
20260831225706 28 131 1.6 1.6 0.00 0.00 0.00 88 1013.8
20260831225201 28 132 1.6 1.6 0.00 0.00 0.00 87 1014.1
20260831224656 28 128 1.6 1.6 0.00 0.00 0.00 87 1014.1
20260831224152 28 130 1.6 3.2 0.00 0.00 0.00 87 1014.2
20260831223647 28 128 1.6 1.6 0.00 0.00 0.00 86 1014.1
20260831223144 28 127 0.0 0.0 0.00 0.00 0.00 84 1014.2
20260831222639 28 128 0.0 0.0 0.00 0.00 0.00 83 1014.3
20260831222135 29 127 0.0 0.0 0.00 0.00 0.00 82 1014.1
20260831221630 30 127 0.0 0.0 0.00 0.00 0.00 81 1014.3
20260831221125 30 127 1.6 1.6 0.00 0.00 0.00 78 1014.1
20260831220620 31 127 1.6 1.6 0.00 0.00 0.00 76 1014.2
20260831220115 31 127 1.6 1.6 0.00 0.00 0.00 75 1014.5
20260831215611 31 128 1.6 3.2 0.00 0.00 0.00 70 1014.4
20260831215106 31 131 1.6 1.6 0.00 0.00 0.00 72 1014.5
20260831214604 31 129 0.0 0.0 0.00 0.00 0.00 70 1014.5
20260831214100 32 128 3.2 3.2 0.00 0.00 0.00 68 1014.6
20260831213556 32 135 4.8 4.8 0.00 0.00 0.00 68 1014.7
20260831213051 32 136 1.6 1.6 0.00 0.00 0.00 70 1014.6
20260831212547 31 124 3.2 3.2 0.00 0.00 0.00 70 1014.8
20260831212043 31 125 1.6 1.6 0.00 0.00 0.00 69 1014.8
20260831211537 31 124 6.4 9.7 0.00 0.00 0.00 69 1014.6
20260831211036 31 130 1.6 1.6 0.00 0.00 0.00 73 1014.8
20260831210531 31 138 4.8 4.8 0.00 0.00 0.00 74 1014.7
20260831210027 31 127 8.0 8.0 0.00 0.00 0.00 71 1014.8
20260831205522 31 141 6.4 8.0 0.00 0.00 0.00 73 1014.6
20260831205018 31 127 4.8 4.8 0.00 0.00 0.00 69 1014.9
20260831204518 31 124 1.6 1.6 0.00 0.00 0.00 72 1014.7
20260831204016 31 134 4.8 4.8 0.00 0.00 0.00 73 1014.6
20260831203511 31 125 1.6 3.2 0.00 0.00 0.00 76 1015.1
20260831203009 32 138 0.0 0.0 0.00 0.00 0.00 75 1015.1
20260831202504 32 129 0.0 0.0 0.00 0.00 0.00 70 1015.0
20260831202003 32 122 0.0 0.0 0.00 0.00 0.00 68 1015.1
20260831201502 32 129 1.6 1.6 0.00 0.00 0.00 64 1015.1
20260831200958 32 109 3.2 3.2 0.00 0.00 0.00 64 1015.1
20260831200453 32 137 3.2 3.2 0.00 0.00 0.00 64 1014.9
20260831195948 32 109 0.0 0.0 0.00 0.00 0.00 70 1014.9
20260831195444 32 124 0.0 0.0 0.00 0.00 0.00 69 1015.2
20260831194938 31 133 0.0 1.6 0.00 0.00 0.00 67 1015.2
20260831194434 32 139 1.6 3.2 0.00 0.00 0.00 70 1015.3
20260831193933 31 162 4.8 4.8 0.00 0.00 0.00 69 1015.2
20260831193429 32 112 1.6 1.6 0.00 0.00 0.00 67 1015.5
20260831192924 32 103 3.2 4.8 0.00 0.00 0.00 64 1015.4
20260831192419 33 122 0.0 0.0 0.00 0.00 0.00 62 1015.5
20260831191914 33 122 1.6 1.6 0.00 0.00 0.00 63 1015.2
20260831191410 33 139 3.2 4.8 0.00 0.00 0.00 63 1015.8
20260831190906 32 124 3.2 4.8 0.00 0.00 0.00 64 1015.7
20260831190406 32 154 4.8 4.8 0.00 0.00 0.00 67 1015.7
20260831185905 32 131 3.2 3.2 0.00 0.00 0.00 65 1015.8
20260831185401 32 97 3.2 3.2 0.00 0.00 0.00 65 1015.8
20260831184900 32 129 8.0 9.7 0.00 0.00 0.00 69 1015.9
20260831184355 32 122 0.0 0.0 0.00 0.00 0.00 68 1016.0
20260831183850 32 130 3.2 3.2 0.00 0.00 0.00 69 1015.8
20260831183350 31 110 3.2 3.2 0.00 0.00 0.00 69 1015.9
20260831182849 32 133 4.8 8.0 0.00 0.00 0.00 72 1016.2
20260831182345 31 112 6.4 8.0 0.00 0.00 0.00 69 1016.1
20260831181840 32 119 1.6 1.6 0.00 0.00 0.00 69 1016.3
20260831181335 31 136 1.6 1.6 0.00 0.00 0.00 74 1016.4
20260831180830 31 132 3.2 4.8 0.00 0.00 0.00 68 1016.3
20260831180325 31 125 3.2 3.2 0.00 0.00 0.00 71 1016.4
20260831175824 31 128 1.6 1.6 0.00 0.00 0.00 74 1016.2
20260831175320 31 140 6.4 8.0 0.00 0.00 0.00 75 1016.5
20260831174816 30 121 4.8 4.8 0.00 0.00 0.00 74 1016.5
20260831174312 30 124 4.8 4.8 0.00 0.00 0.00 75 1016.6
20260831173811 30 155 6.4 8.0 0.00 0.00 0.00 77 1016.6
20260831173305 30 101 3.2 3.2 0.00 0.00 0.00 78 1016.5
20260831172800 30 152 8.0 9.7 0.00 0.00 0.00 78 1016.9
20260831172255 30 141 4.8 4.8 0.00 0.00 0.00 76 1016.7
20260831171755 30 134 3.2 3.2 0.00 0.00 0.00 80 1016.8
20260831171253 30 147 4.8 4.8 0.00 0.00 0.00 81 1016.8
20260831170749 29 133 4.8 4.8 0.00 0.00 0.00 80 1016.8
20260831170245 29 134 3.2 3.2 0.00 0.00 0.00 82 1016.9
20260831165741 30 124 3.2 3.2 0.00 0.00 0.00 78 1016.7
20260831165237 29 113 1.6 3.2 0.00 0.00 0.00 80 1017.0
20260831164733 29 131 3.2 3.2 0.00 0.00 0.00 81 1016.9
20260831164229 28 126 0.0 1.6 0.00 0.00 0.00 87 1016.9
20260831163724 28 114 0.0 0.0 0.00 0.00 0.00 88 1017.1
20260831163220 28 125 3.2 3.2 0.00 0.00 0.00 84 1016.9
20260831162718 28 131 6.4 8.0 0.00 0.00 0.00 84 1017.0
20260831162217 27 127 1.6 1.6 0.00 0.00 0.00 89 1017.2
20260831161712 27 118 4.8 4.8 0.00 0.00 0.00 88 1017.0
20260831161209 27 138 1.6 3.2 0.00 0.00 0.00 89 1016.9
20260831160708 27 125 4.8 4.8 0.00 0.00 0.00 87 1016.9
20260831160204 27 126 0.0 1.6 0.00 0.00 0.00 92 1016.9
20260831155703 26 125 4.8 4.8 0.00 0.00 0.00 87 1017.0
20260831155159 26 119 4.8 4.8 0.00 0.00 0.00 91 1017.1
20260831154655 26 116 4.8 4.8 0.00 0.00 0.00 92 1017.3
20260831154150 26 125 1.6 3.2 0.00 0.00 0.00 93 1017.0
20260831153649 25 111 1.6 3.2 0.00 0.00 0.00 94 1017.0
20260831153145 25 106 6.4 8.0 0.00 0.00 0.00 93 1017.0
20260831152640 25 123 3.2 3.2 0.00 0.00 0.00 95 1017.2
20260831152137 25 119 3.2 4.8 0.00 0.00 0.00 97 1017.0
20260831151636 24 129 1.6 1.6 0.00 0.00 0.00 99 1017.2
20260831151131 24 117 1.6 1.6 0.00 0.00 0.00 99 1017.2
20260831150626 23 119 1.6 3.2 0.00 0.00 0.00 99 1017.2
20260831150121 23 119 0.0 0.0 0.00 0.00 0.00 99 1017.0
20260831145615 23 123 0.0 0.0 0.00 0.00 0.00 99 1017.2
20260831145111 23 124 1.6 3.2 0.00 0.00 0.00 99 1017.2
20260831144602 23 129 1.6 1.6 0.00 0.00 0.00 99 1017.3
20260831144057 23 125 1.6 1.6 0.00 0.00 0.00 99 1017.0
20260831143551 23 133 0.0 0.0 0.00 0.00 0.00 99 1017.1
20260831143046 23 122 0.0 0.0 0.00 0.00 0.00 99 1016.9
20260831142543 23 118 0.0 0.0 0.00 0.00 0.00 99 1017.0
20260831142043 23 113 0.0 0.0 0.00 0.00 0.00 99 1016.8
20260831141542 23 122 0.0 0.0 0.00 0.00 0.00 99 1016.6
20260831141038 23 125 0.0 0.0 0.00 0.00 0.00 99 1016.8
20260831140537 23 118 0.0 0.0 0.00 0.00 0.00 99 1016.7
20260831140037 23 119 0.0 0.0 0.00 0.00 0.00 99 1016.8
20260831135535 23 127 0.0 0.0 0.00 0.00 0.00 99 1016.9
20260831135031 23 122 0.0 0.0 0.00 0.00 0.00 99 1016.8
20260831134527 23 123 0.0 0.0 0.00 0.00 0.00 99 1016.7
20260831134027 23 125 0.0 0.0 0.00 0.00 0.00 99 1016.6
20260831133521 22 124 0.0 0.0 0.00 0.00 0.00 99 1016.8
20260831133021 22 126 0.0 0.0 0.00 0.00 0.00 99 1016.8
20260831132425 22 124 0.0 0.0 0.00 0.00 0.00 99 1016.7
20260831131924 22 124 0.0 0.0 0.00 0.00 0.00 99 1016.7
20260831131419 22 122 0.0 0.0 0.00 0.00 0.00 99 1016.8
20260831130915 22 122 0.0 0.0 0.00 0.00 0.00 99 1016.8
20260831130411 21 122 0.0 0.0 0.00 0.00 0.00 99 1016.8
20260831125910 21 123 0.0 0.0 0.00 0.00 0.00 99 1016.7
20260831125405 21 123 0.0 0.0 0.00 0.00 0.00 99 1016.7
20260831124900 21 127 0.0 0.0 0.00 0.00 0.00 99 1016.7
20260831124356 21 124 0.0 0.0 0.00 0.00 0.00 99 1016.6
20260831123851 21 120 0.0 0.0 0.00 0.00 0.00 99 1016.5
20260831123350 21 123 0.0 0.0 0.00 0.00 0.00 99 1016.6
20260831122845 21 128 0.0 0.0 0.00 0.00 0.00 99 1016.5
20260831122340 21 122 0.0 0.0 0.00 0.00 0.00 99 1016.3
20260831121840 21 122 0.0 0.0 0.00 0.00 0.00 99 1016.6
20260831121336 21 123 0.0 0.0 0.00 0.00 0.00 99 1016.6
20260831120832 20 123 0.0 0.0 0.00 0.00 0.00 99 1016.7
20260831120326 20 122 0.0 0.0 0.00 0.00 0.00 99 1016.4
20260831115821 20 122 0.0 0.0 0.00 0.00 0.00 99 1016.4
20260831115318 20 124 0.0 0.0 0.00 0.00 0.00 99 1016.5
20260831114817 20 122 0.0 0.0 0.00 0.00 0.00 99 1016.5
20260831114316 20 122 0.0 0.0 0.00 0.00 0.00 99 1016.5
20260831113812 20 123 0.0 0.0 0.00 0.00 0.00 99 1016.3
20260831113312 20 123 0.0 0.0 0.00 0.00 0.00 99 1016.5
20260831112806 20 122 0.0 0.0 0.00 0.00 0.00 99 1016.4
20260831112301 20 122 0.0 0.0 0.00 0.00 0.00 99 1016.3
20260831111756 20 121 0.0 0.0 0.00 0.00 0.00 99 1016.3
20260831111253 20 122 0.0 0.0 0.00 0.00 0.00 99 1016.1
20260831110749 20 126 0.0 0.0 0.00 0.00 0.00 99 1015.9
20260831110243 20 125 0.0 0.0 0.00 0.00 0.00 99 1015.9
20260831105741 20 122 0.0 0.0 0.00 0.00 0.00 99 1016.0
20260831105237 20 121 0.0 0.0 0.00 0.00 0.00 99 1016.0
20260831104732 20 123 0.0 0.0 0.00 0.00 0.00 99 1016.0
20260831104229 20 125 1.6 1.6 0.00 0.00 0.00 99 1015.7
20260831103729 20 128 3.2 3.2 0.00 0.00 0.00 99 1015.7
20260831103225 20 125 0.0 0.0 0.00 0.00 0.00 99 1015.7
20260831102724 20 123 0.0 0.0 0.00 0.00 0.00 99 1015.8
20260831102219 20 124 0.0 0.0 0.00 0.00 0.00 99 1015.8
20260831101714 20 123 0.0 0.0 0.00 0.00 0.00 99 1015.7
20260831101210 20 123 0.0 0.0 0.00 0.00 0.00 99 1015.7
20260831100706 20 123 0.0 0.0 0.00 0.00 0.00 99 1015.7
20260831100202 20 123 0.0 0.0 0.00 0.00 0.00 99 1015.5
20260831095700 20 123 0.0 0.0 0.00 0.00 0.00 99 1015.7
20260831095155 20 126 1.6 1.6 0.00 0.00 0.00 99 1015.5
20260831094650 20 124 0.0 0.0 0.00 0.00 0.00 99 1015.5
20260831094146 20 124 0.0 0.0 0.00 0.00 0.00 99 1015.5
20260831093641 20 123 0.0 0.0 0.00 0.00 0.00 99 1015.7
20260831093138 20 122 0.0 0.0 0.00 0.00 0.00 99 1015.8
20260831092634 20 122 0.0 0.0 0.00 0.00 0.00 99 1015.8
20260831092129 20 122 0.0 0.0 0.00 0.00 0.00 99 1015.7
20260831091628 20 122 0.0 0.0 0.00 0.00 0.00 99 1015.4
20260831091124 20 122 0.0 0.0 0.00 0.00 0.00 99 1015.8
20260831090619 20 122 0.0 0.0 0.00 0.00 0.00 99 1015.4
20260831090115 20 122 0.0 0.0 0.00 0.00 0.00 99 1015.5
20260831085610 20 122 0.0 0.0 0.00 0.00 0.00 99 1015.4
20260831085106 20 121 0.0 0.0 0.00 0.00 0.00 99 1015.5
20260831084602 20 122 0.0 0.0 0.00 0.00 0.00 99 1015.5
20260831084058 20 121 0.0 0.0 0.00 0.00 0.00 99 1015.5
20260831083554 20 123 0.0 0.0 0.00 0.00 0.00 99 1015.5
20260831083048 20 123 0.0 0.0 0.00 0.00 0.00 99 1015.7
20260831082547 20 122 0.0 0.0 0.00 0.00 0.00 99 1015.7
20260831082043 20 123 0.0 0.0 0.00 0.00 0.00 99 1015.4
20260831081538 20 123 0.0 0.0 0.00 0.00 0.00 99 1015.4
20260831081034 20 122 0.0 0.0 0.00 0.00 0.00 99 1015.2
20260831080534 20 122 0.0 0.0 0.00 0.00 0.00 99 1015.3
20260831080030 20 122 0.0 0.0 0.00 0.00 0.00 99 1015.2
20260831075525 20 124 0.0 0.0 0.00 0.00 0.00 99 1015.1
20260831075021 20 124 0.0 0.0 0.00 0.00 0.00 99 1015.2
20260831074520 20 123 0.0 0.0 0.00 0.00 0.00 99 1015.0
20260831072724 20 122 0.0 0.0 0.00 0.00 0.00 99 1015.1
20260831072221 20 122 0.0 0.0 0.00 0.00 0.00 99 1015.1
20260831071720 20 122 0.0 0.0 0.00 0.00 0.00 99 1015.1
20260831070534 20 122 0.0 0.0 0.00 0.00 0.00 99 1015.2
20260831070029 20 122 0.0 0.0 0.00 0.00 0.00 99 1015.2
20260831065526 21 122 0.0 0.0 0.00 0.00 0.00 99 1015.3
20260831065021 21 122 0.0 0.0 0.00 0.00 0.00 99 1015.3
20260831063809 21 122 0.0 0.0 0.00 0.00 0.00 99 1015.3
20260831063303 21 122 0.0 0.0 0.00 0.00 0.00 99 1015.3
20260831062803 21 124 0.0 0.0 0.00 0.00 0.00 99 1015.3
20260831062258 21 124 0.0 0.0 0.00 0.00 0.00 99 1015.4
20260831061756 21 123 0.0 0.0 0.00 0.00 0.00 99 1015.4
20260831061251 21 123 0.0 0.0 0.00 0.00 0.00 99 1015.5
20260831060748 21 123 0.0 0.0 0.00 0.00 0.00 99 1015.3
20260831060247 21 123 0.0 0.0 0.00 0.00 0.00 99 1015.4
20260831055747 21 123 0.0 0.0 0.00 0.00 0.00 99 1015.5
20260831055242 21 123 0.0 0.0 0.00 0.00 0.00 99 1015.5
20260831054737 21 123 0.0 0.0 0.00 0.00 0.00 99 1015.7
20260831054232 21 123 0.0 0.0 0.00 0.00 0.00 99 1015.4
20260831053731 21 123 0.0 0.0 0.00 0.00 0.00 99 1015.4
20260831053230 21 123 0.0 0.0 0.00 0.00 0.00 99 1015.4
20260831052729 21 123 0.0 0.0 0.00 0.00 0.00 99 1015.8
20260831052223 21 123 0.0 0.0 0.00 0.00 0.00 99 1015.8
20260831051721 21 123 0.0 0.0 0.00 0.00 0.00 99 1015.5
20260831051220 21 123 0.0 0.0 0.00 0.00 0.00 99 1015.4
20260831050715 22 123 0.0 0.0 0.00 0.00 0.00 99 1015.5
20260831050214 21 123 0.0 0.0 0.00 0.00 0.00 99 1015.5
20260831045709 21 123 0.0 0.0 0.00 0.00 0.00 99 1015.7
20260831045204 22 123 0.0 0.0 0.00 0.00 0.00 99 1015.5
20260831044658 22 124 0.0 0.0 0.00 0.00 0.00 99 1015.7
20260831044153 22 123 0.0 0.0 0.00 0.00 0.00 99 1015.5
20260831043649 22 123 0.0 0.0 0.00 0.00 0.00 99 1015.8
20260831043144 22 123 0.0 0.0 0.00 0.00 0.00 99 1015.7
20260831042643 22 123 0.0 0.0 0.00 0.00 0.00 99 1015.9
20260831042138 22 123 0.0 0.0 0.00 0.00 0.00 99 1015.7
20260831041632 22 123 0.0 0.0 0.00 0.00 0.00 99 1015.5
20260831041127 22 123 0.0 0.0 0.00 0.00 0.00 99 1015.8
20260831040622 22 123 0.0 0.0 0.00 0.00 0.00 99 1015.9
20260831040121 22 125 0.0 0.0 0.00 0.00 0.00 99 1015.9
20260831035619 22 126 0.0 0.0 0.00 2.21 2.21 99 1015.9
20260831035114 22 125 0.0 0.0 0.00 2.21 2.21 99 1016.0
20260831034613 22 125 0.0 0.0 0.00 2.21 2.21 99 1016.1
20260831034109 22 125 0.0 0.0 0.00 2.21 2.21 99 1015.9
20260831033604 22 125 0.0 0.0 0.00 2.21 2.21 99 1016.2
20260831033059 22 125 0.0 0.0 0.00 2.21 2.21 99 1016.1
20260831032559 22 125 0.0 0.0 0.00 2.21 2.21 99 1016.0
20260831032054 22 125 0.0 0.0 0.00 2.21 2.21 99 1016.0
20260831031554 23 125 0.0 0.0 0.00 2.21 2.21 99 1015.9
20260831031054 22 125 0.0 0.0 0.00 2.21 2.21 99 1016.0
20260831030553 22 125 0.0 0.0 0.00 2.21 2.21 99 1015.9
20260831030052 23 125 0.0 0.0 0.00 2.21 2.21 99 1016.0
20260831025551 23 126 0.0 0.0 0.00 2.21 2.21 99 1016.1
20260831025046 23 123 0.0 0.0 0.00 2.21 2.21 99 1015.8
20260831024542 23 124 0.0 0.0 0.00 2.21 2.21 99 1016.2
20260831024040 23 122 0.0 0.0 0.00 2.21 2.21 99 1015.8
20260831023539 23 122 0.0 0.0 0.00 2.21 2.21 99 1015.7
20260831023033 23 122 0.0 0.0 0.00 2.21 2.21 99 1015.9
20260831022533 23 124 0.0 0.0 0.00 2.21 2.21 99 1015.8